Location: Dal�� Lhota
(48.7500°N, 14.0167°E)
Time: 04:09:58
(UTC+00:00)

Tiros 1 - Visible Passes

Search period start: 06 August 2021 00:00
Search period end: 16 August 2021 00:00
Orbit: 630 x 664 km, 48.4° (Epoch: 05 August)

Date Brightness Start Highest point End Pass type
(mag) Time Alt. Az. Time Alt. Az. Time Alt. Az.
06 Aug 7.8 20:16:26 10° W 20:20:54 41° SSW 20:23:10 24° SSE visible
06 Aug 9.6 22:00:32 10° WSW 22:00:47 10° WSW 22:00:47 10° WSW visible
07 Aug 7.4 19:00:06 10° W 19:04:51 65° SSW 19:09:31 10° ESE visible
07 Aug 8.5 20:42:42 10° W 20:46:31 24° SW 20:47:42 22° SSW visible
08 Aug 7.9 19:26:08 10° W 19:30:39 43° SSW 19:34:38 13° SE visible
08 Aug 9.3 21:09:54 10° WSW 21:11:57 13° SW 21:12:17 13° SW visible
09 Aug 8.6 19:52:22 10° W 19:56:17 26° SW 19:59:17 14° SSE visible
10 Aug 9.4 20:19:21 10° WSW 20:21:45 14° SW 20:23:59 10° SSW visible
11 Aug 8.7 19:02:02 10° W 19:06:04 27° SW 19:10:03 10° SSE visible
12 Aug 9.4 19:28:52 10° WSW 19:31:33 15° SW 19:34:13 10° S visible
